This is the latest recevied weather packets stored in our database for station/object VK5FR. If no packets are shown the sender has not sent any weather packets the latest 10 day(s).
| Time | Temp. | Humidity | Pressure | Rain* | Wind** | Luminosity | Snow |
|---|---|---|---|---|---|---|---|
| 1778122110 | 14.44° C | 58% | 1028.2 hPa | 0 mm | - | - | - |
| 1778121807 | 14.44° C | 57% | 1028.1 hPa | 0 mm | - | - | - |
| 1778121503 | 15° C | 56% | 1028.3 hPa | 0 mm | - | - | - |
| 1778121200 | 15° C | 57% | 1028.5 hPa | 0 mm | - | - | - |
| 1778120897 | 14.44° C | 59% | 1028.6 hPa | 0 mm | - | - | - |
| 1778120593 | 15° C | 56% | 1028.5 hPa | 0 mm | - | - | - |
| 1778120290 | 15° C | 55% | 1028.3 hPa | 0 mm | - | - | - |
| 1778119985 | 14.44° C | 58% | 1028.4 hPa | 0 mm | - | - | - |
| 1778119683 | 14.44° C | 63% | 1028.6 hPa | 0 mm | - | - | - |
| 1778119380 | 14.44° C | 62% | 1028.6 hPa | 0 mm | - | - | - |
| 1778119077 | 14.44° C | 62% | 1028.8 hPa | 0 mm | - | - | - |
| 1778118774 | 14.44° C | 63% | 1028.3 hPa | 0 mm | - | - | - |
| 1778118471 | 14.44° C | 62% | 1028.6 hPa | 0 mm | - | - | - |
| 1778118167 | 13.89° C | 64% | 1028.7 hPa | 0 mm | - | - | - |
| 1778117864 | 13.89° C | 63% | 1028.6 hPa | 0 mm | - | - | - |
| 1778117562 | 13.89° C | 64% | 1029 hPa | 0 mm | - | - | - |
| 1778117259 | 13.89° C | 65% | 1028.7 hPa | 0 mm | - | - | - |
| 1778116954 | 13.89° C | 65% | 1028.7 hPa | 0 mm | - | - | - |
| 1778116652 | 13.33° C | 66% | 1028.6 hPa | 0 mm | - | - | - |
| 1778116348 | 13.89° C | 64% | 1028.6 hPa | 0 mm | - | - | - |
| 1778116048 | 13.89° C | 62% | 1028.5 hPa | 0 mm | - | - | - |
| 1778115744 | 13.89° C | 61% | 1028.4 hPa | 0 mm | - | - | - |
| 1778115442 | 13.89° C | 59% | 1028.2 hPa | 0 mm | - | - | - |
| 1778115138 | 13.89° C | 58% | 1028.4 hPa | 0 mm | - | - | - |
| 1778114835 | 13.89° C | 57% | 1028.3 hPa | 0 mm | - | - | - |
* Rain latest hour (hover to see other rain measurements)
** Current wind speed in m/s (hover to see current wind gust speed)